Location: Newark
(34.4697°S, 57.8467°W)
Time: 07:51:11
(UTC+00:00)

N. Korean satellite - Pass Details

Date: 23 July 2019
Orbit: 457 x 507 km, 97.2° (Epoch: 18 August)

Event Time Altitude Azimuth Distance (km) Brightness Sun altitude
Rises 08:18:37 0° 46° (NE) 2,594 10.9 -31.3°
Reaches altitude 10° 08:21:10 10° 64° (ENE) 1,712 10.1 -30.8°
Maximum altitude 08:23:45 18° 109° (ESE) 1,274 9.3 -30.2°
Enters shadow 08:24:39 17° 128° (SE) 1,334 9.2 -30.1°
